星链-37146(STARLINK-37146)

导读

STARLINK-37146(NORAD编号68555)是SpaceX星链星座中的一颗低轨互联网卫星,归属SpaceX主导的星链卫星互联网项目,该项目旨在通过近地轨道卫星星座为全球提供高速宽带互联网服务。 目前公开可查询资料中暂未记录该卫星发生过在轨解体等异常事件,星链星座整体截至2025年底在轨活跃卫星超9000颗,通过升级星间激光链路提升通信性能,并优化了碰撞规避与空间天气应对能力,该卫星作为星链组网卫星承担着全球互联网覆盖的相关任务。

基本信息
目录编号:
68555
目录名称:
STARLINK-37146
国际标识:
2026-070P
轨道中心:
EARTH
卫星名称:
星链-37146
卫星全名:
星链-37146(STARLINK-37146)
卫星状态:
在轨 (已飞行69 天)
发射日期:
2026-04-02 UTC
国别 :
美国 (US)
星等 :
--
轨道信息
数据来源 国际轨道数据
星历时间: 2026-06-10T09:55:55+0800
10小时前
查看轨道信息
半长轴: 6840.796km
偏心率: 0.0001421
轨道倾角: 53.160°
近地点辐角 80.597°
升交点赤经 292.482°
平近点角 279.519°
近地点: 461.686km
远地点: 463.632km
周期: 93.847分钟
每日圈数: 15.344152
详细信息
固有亮度:
5
最大亮度:
2.5
卫星平台:
Starlink V1.0
覆盖范围:
全球
运营商:
太空探索技术公司
运营商所在国:
美国
制造商(研发单位):
太空探索技术公司
制造商所在国:
美国
使用方式:
暂无
卫星简介
Starlink 计划是 SpaceX 推出的全球卫星互联网项目,通过发射低轨道卫星,为全球尤其是偏远地区提供高速、低延迟的互联网服务。自 2019 年起,Starlink 已部署数千颗卫星,旨在缩小全球数字鸿沟,推动互联网普及。该项目还为军事、航空等行业提供通信支持,带来广泛经济效益。
2D轨道图
3D轨道图
轨道高度分析图
轨道倾角分析图
轨道综合分析图
查看轨道综合分析图